Weather Roundup
Issued by NWS

Home | Current Version | Previous Version | Graphics & Text | Print | Product List | Glossary Off
Versions: 1 2 3 4 5 6 7 8 9 10 11 12 13 14 15 16 17 18 19 20 21 22 23 24 25 26 27 28 29 30 31 32 33 34 35 36 37 38 39 40 41 42 43 44 45 46 47 48 49 50

000
NZUS93 KARX 301110
HRRWXR

CURRENT HOURLY OBSERVATIONS ACROSS
MUCH OF THE UPPER MISSISSIPPI VALLEY
NATIONAL WEATHER SERVICE LA CROSSE WI
600 AM CDT THU JUL 30 2015


...SOUTHEAST MINNESOTA...


CITY           SKY/WX    TMP DP  RH WIND       PRES   REMARKS
ROCHESTER      CLEAR     60  55  83 W10       30.08S
ROCHESTER/MAYO FAIR      64  55  73 W10       30.06S
WINONA         CLEAR     61  57  88 CALM      30.04S
AUSTIN         CLEAR     61  55  82 SW5       30.09R
ALBERT LEA     CLEAR     63  55  77 SW3       30.10R
DODGE CENTER   PTCLDY    55  54  94 W8        30.07S
PRESTON        CLEAR     60  54  80 W9        30.08S
OWATONNA       CLEAR     59  54  82 CALM      30.07S
FARIBAULT      CLEAR     61  57  88 SW6       30.06S
$$

...ELSEWHERE IN MINNESOTA...


CITY           SKY/WX    TMP DP  RH WIND       PRES   REMARKS
MINNEAPOLIS    CLEAR     63  55  75 SW8       30.03R
INTNL FALLS    CLEAR     56  54  93 W6        29.90R
DULUTH         CLEAR     59  55  87 W10       29.93R
RED WING       CLEAR     61  55  82 CALM      30.02R
REDWOOD FALLS  CLEAR     65  53  65 W10       30.07R
MANKATO        CLEAR     61  52  72 W7        30.07R
WORTHINGTON    CLEAR     61  54  77 SW6       30.14S
FAIRMONT       CLEAR     63  52  67 SW7       30.10R
$$

...SOUTHWEST WISCONSIN...


CITY           SKY/WX    TMP DP  RH WIND       PRES   REMARKS
LA CROSSE      CLEAR     67  55  65 CALM      30.03R
PRAIRIE DU CHI CLEAR     64  56  75 W8        30.06S
BOSCOBEL       CLEAR     60  57  89 SW5       30.06R
LONE ROCK      CLEAR     63  57  81 W3        30.05R
PLATTEVILLE    CLEAR     60  58  93 W6        30.07S
FORT MC COY    CLEAR     62  54  74 SW3       30.03R
CAMP DOUGLAS   CLEAR     59  59  99 W7        30.01R
VIROQUA        FAIR      59  56  90 W7        30.06R
WIS DELLS      CLEAR     61  54  79 SW6       30.03R
$$

...ELSEWHERE IN WISCONSIN...


CITY           SKY/WX    TMP DP  RH WIND       PRES   REMARKS
MILWAUKEE      CLEAR     67  54  63 W7        29.99R
MADISON        CLEAR     66  56  70 W6        30.02R
GREEN BAY      CLEAR     65  55  70 W12       29.93R
EAU CLAIRE     CLEAR     61  55  81 SW9       29.99R
BLACK RVR FLS  FAIR      53  53 100 CALM      30.01R
MEDFORD        CLEAR     59  55  88 W6        29.98S
WAUSAU         CLEAR     64  55  72 NW9       29.95R
WIS RAPIDS     CLEAR     63  53  70 W7        30.00R
MARSHFIELD     CLEAR     60  53  77 W7        29.99R
RICE LAKE      CLEAR     60  55  83 SW3       30.00S
$$

...NORTHEAST IOWA...


CITY           SKY/WX    TMP DP  RH WIND       PRES   REMARKS
DECORAH        CLEAR     61  57  88 VRB3      30.08R
MASON CITY     CLEAR     62  58  86 W8        30.12S
CHARLES CITY   CLEAR     59  59 100 NW5       30.10F
OELWEIN          N/A     59  57  94 CALM      30.11R
$$

...ELSEWHERE IN IOWA...


CITY           SKY/WX    TMP DP  RH WIND       PRES   REMARKS
DES MOINES     CLEAR     64  56  75 W6        30.14S
IOWA CITY      CLEAR     63  59  87 W7        30.12S
FORT DODGE     CLEAR     59  55  88 S3        30.14S
$$

...NORTHERN ILLINOIS...


CITY           SKY/WX    TMP DP  RH WIND       PRES   REMARKS
CHICAGO-OHARE  CLEAR     65  58  78 W5        30.04R
CHICAGO-MIDWAY CLEAR     69  57  65 W7        30.04R
MOLINE         CLEAR     61  57  87 SW5       30.10R
ROCKFORD       CLEAR     64  57  78 CALM      30.07R
PEORIA         CLEAR     71  57  61 W5        30.11R
$$

NOTE: "FAIR" INDICATES FEW OR NO CLOUDS BELOW 12,000 FEET WITH NO
SIGNIFICANT WEATHER AND/OR OBSTRUCTIONS TO VISIBILITY. WIND
SPEEDS ARE IN MILES-PER-HOUR.



USA.gov is the U.S. government's official web portal to all federal, state and local government web resources and services.